,,,PA_Meas_PMT16A,,PR_Meas_QMR101_102,,RH_Meas_QMH101,,SR_Meas_QMS101,,TA_Meas_QMH101,,GenWind,,GenWind,
date,time,status,PA,status,PR,status,RH,status,SR,status,TA,status,DirAvg,status,SpdAvg,
2009-02-18, 00:00:05,VALID,1000.59,VALID,0,VALID,89.4954,VALID,0,VALID,23.8378,VALID,134,VALID,0.646875,
2009-02-18, 00:01:05,VALID,1000.58,VALID,0,VALID,89.526,VALID,0,VALID,23.8201,VALID,121,VALID,0.805469,
2009-02-18, 00:02:05,VALID,1000.6,VALID,0,VALID,89.6786,VALID,0,VALID,23.7811,VALID,120,VALID,0.100781,
2009-02-18, 00:03:05,VALID,1000.62,VALID,0,VALID,89.7777,VALID,0,VALID,23.7597,VALID,120,VALID,0.385938,
2009-02-18, 00:04:05,VALID,1000.61,VALID,0,VALID,89.8998,VALID,0,VALID,23.742,VALID,120,VALID,0.246094,
2009-02-18, 00:05:05,VALID,1000.6,VALID,0,VALID,90.06,VALID,0,VALID,23.7225,VALID,120,VALID,0.262109,
2009-02-18, 00:06:05,VALID,1000.6,VALID,0,VALID,90.0677,VALID,0,VALID,23.7225,VALID,120,VALID,0.24375,
2009-02-18, 00:07:05,VALID,1000.62,VALID,0,VALID,90.1287,VALID,0,VALID,23.6622,VALID,120,VALID,0,
2009-02-18, 00:08:05,VALID,1000.63,VALID,0,VALID,90.06,VALID,0,VALID,23.664,VALID,120,VALID,0,
2009-02-18, 00:09:05,VALID,1000.62,VALID,0,VALID,90.1745,VALID,0,VALID,23.625,VALID,120,VALID,0,
2009-02-18, 00:10:05,VALID,1000.63,VALID,0,VALID,90.35,VALID,0,VALID,23.625,VALID,120,VALID,0.0804688,
2009-02-18, 00:11:05,VALID,1000.63,VALID,0,VALID,90.3576,VALID,0,VALID,23.625,VALID,120,VALID,0.117578,
2009-02-18, 00:12:05,VALID,1000.62,VALID,0,VALID,90.4644,VALID,0,VALID,23.6445,VALID,358,VALID,0.509766,
2009-02-18, 00:13:05,VALID,1000.63,VALID,0,VALID,90.5712,VALID,0,VALID,23.6445,VALID,357,VALID,0.401953,
2009-02-18, 00:14:05,VALID,1000.61,VALID,0,VALID,90.6094,VALID,0,VALID,23.625,VALID,357,VALID,0.371484,
2009-02-18, 00:15:05,VALID,1000.61,VALID,0,VALID,90.6704,VALID,0,VALID,23.625,VALID,357,VALID,0.0175781,
2009-02-18, 00:16:05,VALID,1000.63,VALID,0,VALID,90.678,VALID,0,VALID,23.6054,VALID,357,VALID,0,
2009-02-18, 00:17:05,VALID,1000.57,VALID,0,VALID,91.0519,VALID,0,VALID,23.5859,VALID,357,VALID,0,
2009-02-18, 00:18:05,VALID,1000.56,VALID,0,VALID,91.09,VALID,0,VALID,23.5646,VALID,357,VALID,0,
2009-02-18, 00:19:05,VALID,1000.55,VALID,0,VALID,91.0671,VALID,0,VALID,23.5451,VALID,357,VALID,0,
2009-02-18, 00:20:05,VALID,1000.55,VALID,0,VALID,91.0748,VALID,0,VALID,23.5469,VALID,357,VALID,0.332812,
2009-02-18, 00:21:05,VALID,1000.6,VALID,0,VALID,91.09,VALID,0,VALID,23.5274,VALID,357,VALID,0.224609,
2009-02-18, 00:22:05,VALID,1000.62,VALID,0,VALID,91.1511,VALID,0,VALID,23.5469,VALID,343,VALID,0.474219,
2009-02-18, 00:23:05,VALID,1000.62,VALID,0,VALID,91.1892,VALID,0,VALID,23.5664,VALID,269,VALID,0.638281,
2009-02-18, 00:24:05,VALID,1000.62,VALID,0,VALID,91.0366,VALID,0,VALID,23.5859,VALID,263,VALID,0.577344,
2009-02-18, 00:25:05,VALID,1000.63,VALID,0,VALID,90.8764,VALID,0,VALID,23.625,VALID,271,VALID,0.464844,
2009-02-18, 00:26:05,VALID,1000.66,VALID,0,VALID,90.762,VALID,0,VALID,23.625,VALID,295,VALID,0.389453,
2009-02-18, 00:27:05,VALID,1000.69,VALID,0,VALID,90.762,VALID,0,VALID,23.6445,VALID,296,VALID,0.205859,
2009-02-18, 00:28:05,VALID,1000.66,VALID,0,VALID,90.823,VALID,0,VALID,23.6445,VALID,296,VALID,0,
2009-02-18, 00:29:05,VALID,1000.63,VALID,0,VALID,91.1053,VALID,0,VALID,23.6054,VALID,296,VALID,0.170312,
2009-02-18, 00:30:04,VALID,1000.61,VALID,0,VALID,91.174,VALID,0,VALID,23.5859,VALID,60,VALID,0.460156,
2009-02-18, 00:31:04,VALID,1000.58,VALID,0,VALID,91.3113,VALID,0,VALID,23.5469,VALID,60,VALID,0.26875,
2009-02-18, 00:32:04,VALID,1000.56,VALID,0,VALID,91.3952,VALID,0,VALID,23.5079,VALID,60,VALID,0.176172,
2009-02-18, 00:33:04,VALID,1000.57,VALID,0,VALID,91.441,VALID,0,VALID,23.4884,VALID,60,VALID,0,
2009-02-18, 00:34:04,VALID,1000.56,VALID,0,VALID,91.4486,VALID,0,VALID,23.4688,VALID,60,VALID,0,
2009-02-18, 00:35:04,VALID,1000.55,VALID,0,VALID,91.4868,VALID,0,VALID,23.4493,VALID,60,VALID,0,
2009-02-18, 00:36:04,VALID,1000.55,VALID,0,VALID,91.5249,VALID,0,VALID,23.4493,VALID,60,VALID,0,
2009-02-18, 00:37:04,VALID,1000.51,VALID,0,VALID,91.6394,VALID,0,VALID,23.428,VALID,147,VALID,0.40625,
2009-02-18, 00:38:04,VALID,1000.51,VALID,0,VALID,91.4715,VALID,0,VALID,23.4493,VALID,146,VALID,0.840234,
2009-02-18, 00:39:04,VALID,1000.5,VALID,0,VALID,91.2808,VALID,0,VALID,23.5079,VALID,170,VALID,1.27266,
2009-02-18, 00:40:04,VALID,1000.52,VALID,0,VALID,91.0595,VALID,0,VALID,23.5859,VALID,198,VALID,1.03906,
2009-02-18, 00:41:04,VALID,1000.5,VALID,0,VALID,90.6857,VALID,0,VALID,23.6835,VALID,208,VALID,1.08008,
2009-02-18, 00:42:04,VALID,1000.45,VALID,0,VALID,90.2584,VALID,0,VALID,23.742,VALID,204,VALID,0.862109,
2009-02-18, 00:43:04,VALID,1000.45,VALID,0,VALID,90.1516,VALID,0,VALID,23.7793,VALID,185,VALID,0.538281,
2009-02-18, 00:44:04,VALID,1000.41,VALID,0,VALID,90.1363,VALID,0,VALID,23.7793,VALID,170,VALID,0.437891,
2009-02-18, 00:45:04,VALID,1000.42,VALID,0,VALID,89.9685,VALID,0,VALID,23.8201,VALID,163,VALID,0.785937,
2009-02-18, 00:46:04,VALID,1000.41,VALID,0,VALID,90.2355,VALID,0,VALID,23.8396,VALID,149,VALID,0.875,
2009-02-18, 00:47:04,VALID,1000.39,VALID,0,VALID,90.266,VALID,0,VALID,23.8396,VALID,144,VALID,1.13203,
2009-02-18, 00:48:04,VALID,1000.38,VALID,0,VALID,90.2279,VALID,0,VALID,23.8183,VALID,141,VALID,1.04648,
2009-02-18, 00:49:04,VALID,1000.34,VALID,0,VALID,90.3271,VALID,0,VALID,23.7988,VALID,142,VALID,0.831641,
2009-02-18, 00:50:04,VALID,1000.32,VALID,0,VALID,90.411,VALID,0,VALID,23.7988,VALID,150,VALID,0.977734,
2009-02-18, 00:51:04,VALID,1000.29,VALID,0,VALID,90.5178,VALID,0,VALID,23.7811,VALID,158,VALID,0.794922,
2009-02-18, 00:52:04,VALID,1000.29,VALID,0,VALID,90.678,VALID,0,VALID,23.7616,VALID,158,VALID,0.549609,
2009-02-18, 00:53:04,VALID,1000.29,VALID,0,VALID,90.762,VALID,0,VALID,23.742,VALID,141,VALID,0.604688,
2009-02-18, 00:54:04,VALID,1000.28,VALID,0,VALID,90.6933,VALID,0,VALID,23.6817,VALID,129,VALID,0.668359,
2009-02-18, 00:55:04,VALID,1000.28,VALID,0,VALID,90.7772,VALID,0,VALID,23.664,VALID,129,VALID,0.658984,
2009-02-18, 00:56:04,VALID,1000.26,VALID,0,VALID,90.9374,VALID,0,VALID,23.6445,VALID,128,VALID,0.503125,
2009-02-18, 00:57:04,VALID,1000.26,VALID,0,VALID,91.0595,VALID,0,VALID,23.6054,VALID,128,VALID,0.247656,
2009-02-18, 00:58:04,VALID,1000.21,VALID,0,VALID,91.174,VALID,0,VALID,23.6054,VALID,128,VALID,0.0828125,
2009-02-18, 00:59:04,VALID,1000.16,VALID,0,VALID,91.1968,VALID,0,VALID,23.5664,VALID,128,VALID,0,
2009-02-18, 01:00:04,VALID,1000.15,VALID,0,VALID,91.296,VALID,0,VALID,23.5256,VALID,128,VALID,0,
2009-02-18, 01:01:04,VALID,1000.16,VALID,0,VALID,91.4334,VALID,0,VALID,23.5274,VALID,128,VALID,0,
2009-02-18, 01:02:04,VALID,1000.11,VALID,0,VALID,91.6241,VALID,0,VALID,23.4884,VALID,128,VALID,0,
2009-02-18, 01:03:04,VALID,1000.08,VALID,0,VALID,91.7538,VALID,0,VALID,23.4475,VALID,128,VALID,0.332031,
2009-02-18, 01:04:04,VALID,1000.06,VALID,0,VALID,91.9522,VALID,0,VALID,23.4493,VALID,128,VALID,0.401953,
2009-02-18, 01:05:04,VALID,1000.05,VALID,0,VALID,92.1124,VALID,0,VALID,23.4493,VALID,128,VALID,0.404297,
2009-02-18, 01:06:04,VALID,1000.03,VALID,0,VALID,92.2345,VALID,0,VALID,23.4298,VALID,128,VALID,0.407422,
2009-02-18, 01:07:04,VALID,999.991,VALID,0,VALID,92.2803,VALID,0,VALID,23.389,VALID,128,VALID,0.401172,
2009-02-18, 01:08:04,VALID,999.954,VALID,0,VALID,92.3184,VALID,0,VALID,23.389,VALID,128,VALID,0.45,
2009-02-18, 01:09:04,VALID,999.968,VALID,0,VALID,92.3489,VALID,0,VALID,23.4103,VALID,128,VALID,0.567578,
2009-02-18, 01:10:04,VALID,999.967,VALID,0,VALID,92.3947,VALID,0,VALID,23.3713,VALID,128,VALID,0.717969,
2009-02-18, 01:11:04,VALID,999.909,VALID,0,VALID,92.471,VALID,0,VALID,23.3323,VALID,297,VALID,0.914453,
2009-02-18, 01:12:04,VALID,999.935,VALID,0,VALID,92.5702,VALID,0,VALID,23.3127,VALID,299,VALID,1.03437,
2009-02-18, 01:13:04,VALID,999.918,VALID,0,VALID,92.7151,VALID,0,VALID,23.2932,VALID,298,VALID,1.17969,
2009-02-18, 01:14:04,VALID,999.945,VALID,0,VALID,92.7228,VALID,0,VALID,23.2524,VALID,303,VALID,0.482031,
2009-02-18, 01:15:04,VALID,999.909,VALID,0,VALID,92.7609,VALID,0,VALID,23.2347,VALID,306,VALID,0.498437,
2009-02-18, 01:16:04,VALID,999.909,VALID,0,VALID,92.7457,VALID,0,VALID,23.1939,VALID,313,VALID,0.512891,
2009-02-18, 01:17:04,VALID,999.897,VALID,0,VALID,92.8525,VALID,0,VALID,23.1762,VALID,313,VALID,0.335938,
2009-02-18, 01:18:04,VALID,999.897,VALID,0,VALID,92.9745,VALID,0,VALID,23.1762,VALID,304,VALID,0.5,
2009-02-18, 01:19:04,VALID,999.874,VALID,0,VALID,93.0737,VALID,0,VALID,23.1566,VALID,295,VALID,0.398047,
2009-02-18, 01:20:04,VALID,999.848,VALID,0,VALID,93.1424,VALID,0,VALID,23.1566,VALID,273,VALID,0.410156,
2009-02-18, 01:21:04,VALID,999.865,VALID,0,VALID,93.1805,VALID,0,VALID,23.1371,VALID,272,VALID,0.439844,
2009-02-18, 01:22:04,VALID,999.821,VALID,0,VALID,93.2263,VALID,0,VALID,23.1159,VALID,271,VALID,0.285937,
2009-02-18, 01:23:04,VALID,999.837,VALID,0,VALID,93.2797,VALID,0,VALID,23.1371,VALID,271,VALID,0.640234,
2009-02-18, 01:24:04,VALID,999.837,VALID,0,VALID,93.2874,VALID,0,VALID,23.1371,VALID,261,VALID,0.872266,
2009-02-18, 01:25:04,VALID,999.829,VALID,0,VALID,93.3331,VALID,0,VALID,23.1176,VALID,265,VALID,0.640234,
2009-02-18, 01:26:04,VALID,999.849,VALID,0,VALID,93.3637,VALID,0,VALID,23.1176,VALID,265,VALID,0.514844,
2009-02-18, 01:27:04,VALID,999.847,VALID,0,VALID,93.2416,VALID,0,VALID,23.1176,VALID,312,VALID,0.45,
2009-02-18, 01:28:04,VALID,999.858,VALID,0,VALID,93.2645,VALID,0,VALID,23.0591,VALID,33,VALID,0.965234,
2009-02-18, 01:29:04,VALID,999.87,VALID,0,VALID,93.4934,VALID,0.112286,VALID,23.0591,VALID,33,VALID,0.687109,
2009-02-18, 01:30:04,VALID,999.862,VALID,0,VALID,93.5315,VALID,0,VALID,23.0396,VALID,33,VALID,0.294922,
2009-02-18, 01:31:04,VALID,999.808,VALID,0,VALID,93.4781,VALID,0,VALID,23.0396,VALID,33,VALID,0.00117188,
2009-02-18, 01:32:04,VALID,999.803,VALID,0,VALID,93.4628,VALID,0,VALID,23.0183,VALID,33,VALID,0,
2009-02-18, 01:33:04,VALID,999.797,VALID,0,VALID,93.3866,VALID,0,VALID,22.9988,VALID,33,VALID,0,
2009-02-18, 01:34:04,VALID,999.791,VALID,0,VALID,93.3637,VALID,0,VALID,22.9793,VALID,33,VALID,0,
2009-02-18, 01:35:04,VALID,999.779,VALID,0,VALID,93.4323,VALID,0,VALID,22.9598,VALID,33,VALID,0,
2009-02-18, 01:36:04,VALID,999.771,VALID,0,VALID,93.4934,VALID,0,VALID,22.9598,VALID,32,VALID,0,
2009-02-18, 01:37:04,VALID,999.786,VALID,0,VALID,93.6078,VALID,0,VALID,22.9403,VALID,33,VALID,0.432422,
2009-02-18, 01:38:04,VALID,999.779,VALID,0,VALID,93.646,VALID,0,VALID,22.9403,VALID,33,VALID,0.351172,
2009-02-18, 01:39:04,VALID,999.734,VALID,0,VALID,93.7451,VALID,0,VALID,22.9615,VALID,33,VALID,0.202344,
2009-02-18, 01:40:04,VALID,999.738,VALID,0,VALID,93.7604,VALID,0,VALID,22.9598,VALID,33,VALID,0.398438,
2009-02-18, 01:41:04,VALID,999.698,VALID,0,VALID,93.6231,VALID,0,VALID,22.9403,VALID,33,VALID,0.49375,
2009-02-18, 01:42:04,VALID,999.706,VALID,0,VALID,93.5697,VALID,0,VALID,22.942,VALID,32,VALID,0.598047,
2009-02-18, 01:43:04,VALID,999.682,VALID,0,VALID,93.7223,VALID,0,VALID,22.9208,VALID,32,VALID,0.560156,
2009-02-18, 01:44:04,VALID,999.65,VALID,0,VALID,93.7757,VALID,0,VALID,22.9225,VALID,32,VALID,0.469141,
2009-02-18, 01:45:04,VALID,999.68,VALID,0,VALID,93.7604,VALID,0.112286,VALID,22.942,VALID,32,VALID,0.492188,
2009-02-18, 01:46:04,VALID,999.658,VALID,0,VALID,93.7146,VALID,0,VALID,22.9208,VALID,32,VALID,0.487891,
2009-02-18, 01:47:04,VALID,999.664,VALID,0,VALID,93.8291,VALID,0,VALID,22.9208,VALID,27,VALID,0.685547,
2009-02-18, 01:48:04,VALID,999.66,VALID,0,VALID,93.768,VALID,0,VALID,22.9225,VALID,35,VALID,0.749609,
2009-02-18, 01:49:04,VALID,999.7,VALID,0,VALID,93.8291,VALID,0,VALID,22.9013,VALID,62,VALID,0.654688,
2009-02-18, 01:50:04,VALID,999.685,VALID,0,VALID,94.0808,VALID,0,VALID,22.9013,VALID,88,VALID,0.777344,
2009-02-18, 01:51:04,VALID,999.755,VALID,0,VALID,94.2258,VALID,0,VALID,22.9615,VALID,91,VALID,0.901953,
2009-02-18, 01:52:04,VALID,999.726,VALID,0,VALID,94.2945,VALID,0,VALID,22.9811,VALID,90,VALID,0.789844,
2009-02-18, 01:53:04,VALID,999.749,VALID,0,VALID,94.3097,VALID,0,VALID,23.0006,VALID,100,VALID,1.02227,
2009-02-18, 01:54:04,VALID,999.726,VALID,0,VALID,94.1953,VALID,0,VALID,23.0006,VALID,106,VALID,1.11719,
2009-02-18, 01:55:04,VALID,999.703,VALID,0,VALID,94.1571,VALID,0,VALID,23.0006,VALID,116,VALID,0.950391,
2009-02-18, 01:56:04,VALID,999.675,VALID,0,VALID,94.1266,VALID,0,VALID,23.0006,VALID,114,VALID,0.676953,
2009-02-18, 01:57:04,VALID,999.715,VALID,0,VALID,94.1495,VALID,0,VALID,23.0006,VALID,110,VALID,0.579297,
2009-02-18, 01:58:04,VALID,999.672,VALID,0,VALID,94.1877,VALID,0,VALID,23.0006,VALID,93,VALID,0.693359,
2009-02-18, 01:59:04,VALID,999.664,VALID,0,VALID,94.1495,VALID,0,VALID,23.0006,VALID,92,VALID,0.606641,
2009-02-18, 02:00:04,VALID,999.64,VALID,0,VALID,94.1266,VALID,0,VALID,22.9811,VALID,92,VALID,0.483203,
2009-02-18, 02:01:04,VALID,999.637,VALID,0,VALID,94.1343,VALID,0,VALID,22.9811,VALID,104,VALID,0.628125,
2009-02-18, 02:02:04,VALID,999.654,VALID,0,VALID,94.1343,VALID,0,VALID,22.9811,VALID,110,VALID,0.605859,
2009-02-18, 02:03:04,VALID,999.642,VALID,0,VALID,94.1724,VALID,0,VALID,22.9811,VALID,111,VALID,0.753516,
2009-02-18, 02:04:04,VALID,999.613,VALID,0,VALID,94.2029,VALID,0,VALID,22.9811,VALID,104,VALID,0.863281,
2009-02-18, 02:05:04,VALID,999.632,VALID,0,VALID,94.2182,VALID,0,VALID,22.9598,VALID,104,VALID,0.891016,
2009-02-18, 02:06:04,VALID,999.644,VALID,0,VALID,94.2105,VALID,0,VALID,23.0006,VALID,100,VALID,0.7625,
2009-02-18, 02:07:04,VALID,999.588,VALID,0,VALID,94.2182,VALID,0,VALID,23.0006,VALID,100,VALID,0.753516,
2009-02-18, 02:08:04,VALID,999.623,VALID,0,VALID,94.1571,VALID,0,VALID,23.0201,VALID,91,VALID,0.649609,
2009-02-18, 02:09:04,VALID,999.6,VALID,0,VALID,94.1571,VALID,0,VALID,22.9811,VALID,91,VALID,0.535937,
2009-02-18, 02:10:04,VALID,999.587,VALID,0,VALID,94.1114,VALID,0,VALID,22.9811,VALID,91,VALID,0.309375,
2009-02-18, 02:11:04,VALID,999.597,VALID,0,VALID,94.0732,VALID,0,VALID,22.9615,VALID,91,VALID,0.367578,
2009-02-18, 02:12:04,VALID,999.569,VALID,0,VALID,94.0656,VALID,0,VALID,22.9615,VALID,91,VALID,0.383203,
2009-02-18, 02:13:04,VALID,999.576,VALID,0,VALID,94.0122,VALID,0,VALID,22.9225,VALID,91,VALID,0.421484,
2009-02-18, 02:14:04,VALID,999.561,VALID,0,VALID,93.9817,VALID,0,VALID,22.9225,VALID,90,VALID,0.567969,
2009-02-18, 02:15:04,VALID,999.569,VALID,0,VALID,93.9817,VALID,0,VALID,22.9225,VALID,90,VALID,0.437109,
2009-02-18, 02:16:04,VALID,999.589,VALID,0,VALID,93.9435,VALID,0,VALID,22.9225,VALID,80,VALID,0.620703,
2009-02-18, 02:17:04,VALID,999.525,VALID,0,VALID,93.9206,VALID,0,VALID,22.9225,VALID,78,VALID,0.566016,
2009-02-18, 02:18:04,VALID,999.556,VALID,0,VALID,93.9054,VALID,0,VALID,22.9225,VALID,78,VALID,0.456641,
2009-02-18, 02:19:04,VALID,999.586,VALID,0,VALID,93.9359,VALID,0,VALID,22.9225,VALID,78,VALID,0.432422,
2009-02-18, 02:20:04,VALID,999.614,VALID,0,VALID,94.0274,VALID,0,VALID,22.942,VALID,78,VALID,0.425781,
2009-02-18, 02:21:04,VALID,999.658,VALID,0,VALID,93.9893,VALID,0,VALID,22.9811,VALID,86,VALID,0.772656,
2009-02-18, 02:22:04,VALID,999.688,VALID,0,VALID,93.9588,VALID,0,VALID,22.9811,VALID,87,VALID,0.699219,
2009-02-18, 02:23:04,VALID,999.72,VALID,0,VALID,93.9054,VALID,0,VALID,23.0006,VALID,93,VALID,1.00312,
2009-02-18, 02:24:04,VALID,999.724,VALID,0,VALID,93.7299,VALID,0,VALID,23.0201,VALID,94,VALID,0.932031,
2009-02-18, 02:25:04,VALID,999.746,VALID,0,VALID,93.7223,VALID,0,VALID,23.0201,VALID,96,VALID,0.629297,
2009-02-18, 02:26:04,VALID,999.716,VALID,0,VALID,93.646,VALID,0,VALID,23.0396,VALID,96,VALID,0.64375,
2009-02-18, 02:27:04,VALID,999.769,VALID,0,VALID,93.6154,VALID,0,VALID,23.0591,VALID,102,VALID,0.237891,
2009-02-18, 02:28:04,VALID,999.793,VALID,0,VALID,93.6002,VALID,0,VALID,23.0591,VALID,102,VALID,0.10625,
2009-02-18, 02:29:04,VALID,999.786,VALID,0,VALID,93.646,VALID,0,VALID,23.0591,VALID,102,VALID,0.314453,
2009-02-18, 02:30:04,VALID,999.812,VALID,0,VALID,93.6688,VALID,0,VALID,23.0786,VALID,102,VALID,0.369141,
2009-02-18, 02:31:04,VALID,999.819,VALID,0,VALID,93.6612,VALID,0,VALID,23.0591,VALID,102,VALID,0.0375,
2009-02-18, 02:32:04,VALID,999.798,VALID,0,VALID,93.646,VALID,0,VALID,23.0591,VALID,102,VALID,0.133203,
2009-02-18, 02:33:04,VALID,999.787,VALID,0,VALID,93.6688,VALID,0,VALID,23.0591,VALID,112,VALID,0.205078,
2009-02-18, 02:34:04,VALID,999.772,VALID,0,VALID,93.6612,VALID,0,VALID,23.0591,VALID,112,VALID,0.305078,
2009-02-18, 02:35:04,VALID,999.791,VALID,0,VALID,93.7146,VALID,0,VALID,23.0608,VALID,167,VALID,0.401953,
2009-02-18, 02:36:04,VALID,999.793,VALID,0,VALID,93.7223,VALID,0,VALID,23.0396,VALID,167,VALID,0.485938,
2009-02-18, 02:37:04,VALID,999.796,VALID,0,VALID,93.6994,VALID,0,VALID,23.0804,VALID,167,VALID,0.409766,
2009-02-18, 02:38:04,VALID,999.826,VALID,0,VALID,93.7223,VALID,0,VALID,23.0804,VALID,185,VALID,0.608203,
2009-02-18, 02:39:04,VALID,999.839,VALID,0,VALID,93.646,VALID,0,VALID,23.0804,VALID,205,VALID,0.704687,
2009-02-18, 02:40:04,VALID,999.844,VALID,0,VALID,93.5926,VALID,0,VALID,23.0999,VALID,205,VALID,0.694922,
2009-02-18, 02:41:04,VALID,999.852,VALID,0,VALID,93.4857,VALID,0,VALID,23.1389,VALID,202,VALID,0.356641,
2009-02-18, 02:42:04,VALID,999.84,VALID,0,VALID,93.4781,VALID,0,VALID,23.1584,VALID,167,VALID,0.655469,
2009-02-18, 02:43:04,VALID,999.835,VALID,0,VALID,93.3942,VALID,0,VALID,23.1584,VALID,167,VALID,0.69375,
2009-02-18, 02:44:04,VALID,999.817,VALID,0,VALID,93.3026,VALID,0,VALID,23.1779,VALID,164,VALID,0.899609,
2009-02-18, 02:45:04,VALID,999.787,VALID,0,VALID,93.2645,VALID,0,VALID,23.2169,VALID,163,VALID,1.00781,
2009-02-18, 02:46:04,VALID,999.812,VALID,0,VALID,93.1882,VALID,0,VALID,23.2577,VALID,163,VALID,0.978906,
2009-02-18, 02:47:04,VALID,999.788,VALID,0,VALID,93.1805,VALID,0,VALID,23.256,VALID,161,VALID,1.00078,
2009-02-18, 02:48:04,VALID,999.806,VALID,0,VALID,93.2187,VALID,0,VALID,23.2755,VALID,155,VALID,0.932031,
2009-02-18, 02:49:04,VALID,999.825,VALID,0,VALID,93.2111,VALID,0,VALID,23.295,VALID,147,VALID,0.905859,
2009-02-18, 02:50:04,VALID,999.846,VALID,0,VALID,93.1958,VALID,0,VALID,23.295,VALID,138,VALID,1.0168,
2009-02-18, 02:51:04,VALID,999.874,VALID,0,VALID,93.1805,VALID,0,VALID,23.3323,VALID,134,VALID,1.05859,
2009-02-18, 02:52:04,VALID,999.879,VALID,0,VALID,93.1958,VALID,0,VALID,23.311,VALID,137,VALID,0.902734,
2009-02-18, 02:53:04,VALID,999.86,VALID,0,VALID,93.234,VALID,0,VALID,23.3323,VALID,136,VALID,0.886719,
2009-02-18, 02:54:04,VALID,999.898,VALID,0,VALID,93.3026,VALID,0,VALID,23.3323,VALID,127,VALID,1.12656,
2009-02-18, 02:55:04,VALID,999.866,VALID,0,VALID,93.3179,VALID,0,VALID,23.3323,VALID,128,VALID,0.961328,
2009-02-18, 02:56:04,VALID,999.883,VALID,0,VALID,93.3484,VALID,0,VALID,23.3323,VALID,119,VALID,0.980469,
2009-02-18, 02:57:04,VALID,999.885,VALID,0,VALID,93.4094,VALID,0,VALID,23.3323,VALID,120,VALID,0.916406,
2009-02-18, 02:58:04,VALID,999.871,VALID,0,VALID,93.4171,VALID,0,VALID,23.3323,VALID,116,VALID,0.741016,
2009-02-18, 02:59:04,VALID,999.867,VALID,0,VALID,93.4247,VALID,0,VALID,23.3127,VALID,114,VALID,0.322656,
2009-02-18, 03:00:04,VALID,999.887,VALID,0,VALID,93.4018,VALID,0.112286,VALID,23.3127,VALID,114,VALID,0.0761719,
2009-02-18, 03:01:04,VALID,999.904,VALID,0,VALID,93.3866,VALID,0,VALID,23.2932,VALID,114,VALID,0.294531,
2009-02-18, 03:02:04,VALID,999.89,VALID,0,VALID,93.3942,VALID,0,VALID,23.2737,VALID,114,VALID,0.140234,
2009-02-18, 03:03:04,VALID,999.893,VALID,0,VALID,93.4476,VALID,0,VALID,23.2542,VALID,114,VALID,0.400781,
2009-02-18, 03:04:04,VALID,999.911,VALID,0,VALID,93.4247,VALID,0,VALID,23.2542,VALID,114,VALID,0.478906,
2009-02-18, 03:05:04,VALID,999.885,VALID,0,VALID,93.4476,VALID,0,VALID,23.2347,VALID,114,VALID,0.635156,
2009-02-18, 03:06:04,VALID,999.865,VALID,0,VALID,93.4018,VALID,0,VALID,23.2542,VALID,114,VALID,0.571094,
2009-02-18, 03:07:04,VALID,999.872,VALID,0,VALID,93.4323,VALID,0,VALID,23.2542,VALID,116,VALID,0.794531,
2009-02-18, 03:08:04,VALID,999.896,VALID,0,VALID,93.4171,VALID,0.112286,VALID,23.2329,VALID,122,VALID,0.613672,
2009-02-18, 03:09:04,VALID,999.848,VALID,0,VALID,93.4094,VALID,0,VALID,23.2542,VALID,121,VALID,0.576563,
2009-02-18, 03:10:04,VALID,999.874,VALID,0,VALID,93.4323,VALID,0,VALID,23.2542,VALID,121,VALID,0.702344,
2009-02-18, 03:11:04,VALID,999.863,VALID,0,VALID,93.4705,VALID,0,VALID,23.2542,VALID,121,VALID,0.629297,
2009-02-18, 03:12:04,VALID,999.888,VALID,0,VALID,93.4552,VALID,0,VALID,23.2542,VALID,119,VALID,0.583203,
2009-02-18, 03:13:04,VALID,999.881,VALID,0,VALID,93.4247,VALID,0,VALID,23.2329,VALID,106,VALID,0.726953,
2009-02-18, 03:14:04,VALID,999.847,VALID,0,VALID,93.4094,VALID,0,VALID,23.2347,VALID,98,VALID,0.667188,
2009-02-18, 03:15:04,VALID,999.838,VALID,0,VALID,93.3331,VALID,0,VALID,23.2347,VALID,93,VALID,0.592188,
2009-02-18, 03:16:04,VALID,999.858,VALID,0,VALID,93.3179,VALID,0,VALID,23.2347,VALID,91,VALID,0.478906,
2009-02-18, 03:17:04,VALID,999.834,VALID,0,VALID,93.2874,VALID,0,VALID,23.2152,VALID,82,VALID,0.578906,
2009-02-18, 03:18:04,VALID,999.875,VALID,0,VALID,93.2645,VALID,0,VALID,23.1957,VALID,64,VALID,0.462891,
2009-02-18, 03:19:04,VALID,999.871,VALID,0,VALID,93.2492,VALID,0,VALID,23.1762,VALID,45,VALID,0.645312,
2009-02-18, 03:20:04,VALID,999.847,VALID,0,VALID,93.2263,VALID,0,VALID,23.1566,VALID,34,VALID,0.708594,
2009-02-18, 03:21:04,VALID,999.85,VALID,0,VALID,93.234,VALID,0.112286,VALID,23.1371,VALID,19,VALID,0.892578,
2009-02-18, 03:22:04,VALID,999.867,VALID,0,VALID,93.3179,VALID,0,VALID,23.1176,VALID,18,VALID,1.00937,
2009-02-18, 03:23:04,VALID,999.846,VALID,0,VALID,93.3866,VALID,0,VALID,23.0786,VALID,17,VALID,0.978906,
2009-02-18, 03:24:04,VALID,999.862,VALID,0,VALID,93.5544,VALID,0,VALID,23.0786,VALID,17,VALID,0.985156,
2009-02-18, 03:25:04,VALID,999.841,VALID,0,VALID,93.6688,VALID,0,VALID,23.0786,VALID,9,VALID,0.875781,
2009-02-18, 03:26:04,VALID,999.829,VALID,0,VALID,93.6688,VALID,0,VALID,23.0591,VALID,10,VALID,1.01016,
2009-02-18, 03:27:04,VALID,999.838,VALID,0,VALID,93.7223,VALID,0,VALID,23.0396,VALID,11,VALID,1.09336,
2009-02-18, 03:28:04,VALID,999.834,VALID,0,VALID,93.8214,VALID,0,VALID,23.0183,VALID,12,VALID,0.846484,
2009-02-18, 03:29:04,VALID,999.842,VALID,0,VALID,93.8367,VALID,0,VALID,23.0396,VALID,12,VALID,0.734375,
2009-02-18, 03:30:04,VALID,999.803,VALID,0,VALID,93.8367,VALID,0,VALID,23.0201,VALID,12,VALID,0.560938,
2009-02-18, 03:31:04,VALID,999.776,VALID,0,VALID,93.8977,VALID,0,VALID,23.0201,VALID,21,VALID,0.587109,
2009-02-18, 03:32:04,VALID,999.75,VALID,0,VALID,93.9206,VALID,0,VALID,23.0006,VALID,33,VALID,0.685938,
2009-02-18, 03:33:04,VALID,999.723,VALID,0,VALID,94.0656,VALID,0,VALID,23.0006,VALID,37,VALID,0.802344,
2009-02-18, 03:34:04,VALID,999.727,VALID,0,VALID,94.0732,VALID,0,VALID,22.9988,VALID,39,VALID,0.821484,
2009-02-18, 03:35:04,VALID,999.731,VALID,0,VALID,94.058,VALID,0,VALID,22.9988,VALID,39,VALID,0.830469,
2009-02-18, 03:36:04,VALID,999.743,VALID,0,VALID,94.0732,VALID,0,VALID,23.0201,VALID,39,VALID,0.795313,
2009-02-18, 03:37:04,VALID,999.731,VALID,0,VALID,94.0808,VALID,0,VALID,23.0006,VALID,38,VALID,0.727344,
2009-02-18, 03:38:04,VALID,999.769,VALID,0,VALID,94.0885,VALID,0,VALID,22.9988,VALID,37,VALID,0.703125,
2009-02-18, 03:39:04,VALID,999.764,VALID,0,VALID,94.1266,VALID,0,VALID,23.0201,VALID,36,VALID,0.626172,
2009-02-18, 03:40:04,VALID,999.774,VALID,0,VALID,94.0808,VALID,0,VALID,23.0201,VALID,35,VALID,0.535156,
2009-02-18, 03:41:04,VALID,999.797,VALID,0,VALID,94.0808,VALID,0,VALID,23.0006,VALID,34,VALID,0.664453,
2009-02-18, 03:42:04,VALID,999.83,VALID,0,VALID,94.1037,VALID,0,VALID,23.0006,VALID,35,VALID,0.628516,
2009-02-18, 03:43:04,VALID,999.828,VALID,0,VALID,94.2105,VALID,0,VALID,23.0201,VALID,36,VALID,0.658594,
2009-02-18, 03:44:04,VALID,999.847,VALID,0,VALID,94.2334,VALID,0,VALID,23.0201,VALID,39,VALID,0.712109,
2009-02-18, 03:45:04,VALID,999.855,VALID,0,VALID,94.2105,VALID,0,VALID,23.0396,VALID,42,VALID,0.523828,
2009-02-18, 03:46:04,VALID,999.856,VALID,0,VALID,94.2029,VALID,0,VALID,23.0396,VALID,44,VALID,0.614062,